Location: Drocourt
(49.0571°N, 1.7669°E)
Time: 17:11:58
(UTC+00:00)

Cosmos 2184 Rocket - Visible Passes

Search period start: 30 September 2023 00:00
Search period end: 10 October 2023 00:00
Orbit: 960 x 1001 km, 82.9° (Epoch: 29 September)

Date Brightness Start Highest point End Pass type
(mag) Time Alt. Az. Time Alt. Az. Time Alt. Az.
30 Sep 6.1 05:03:16 10° SSE 05:08:46 33° E 05:14:20 10° NNE visible
01 Oct 6.4 18:07:17 10° NNW 18:12:33 28° W 18:17:47 10° SW visible
02 Oct 7.0 04:13:30 10° ESE 04:17:31 18° ENE 04:21:34 10° NE visible
02 Oct 7.1 18:35:12 10° NW 18:38:54 16° WNW 18:42:35 10° WSW visible
03 Oct 6.1 04:38:30 10° SE 04:43:54 31° E 04:49:20 10° NNE visible
04 Oct 5.1 05:04:21 10° SSE 05:10:27 52° E 05:16:38 10° NNE visible
05 Oct 7.0 03:48:53 10° ESE 03:52:41 17° ENE 03:56:28 10° NE visible
05 Oct 7.0 18:10:05 10° NW 18:14:02 17° WNW 18:17:58 10° WSW visible
06 Oct 6.2 04:13:44 10° SE 04:19:01 29° E 04:24:20 10° NNE visible
07 Oct 5.1 04:39:30 10° SSE 04:45:33 49° E 04:51:40 10° NNE visible
08 Oct 6.9 03:24:19 10° ESE 03:27:49 15° ENE 03:31:19 10° NE visible
08 Oct 4.2 05:05:55 10° S 05:12:17 82° E 05:18:42 10° N visible
08 Oct 6.9 17:45:00 10° NW 17:49:11 19° W 17:53:19 10° WSW visible
09 Oct 6.2 03:48:59 10° SE 03:54:08 27° E 03:59:19 10° NNE visible
